Orbital Elements at Epoch 2459000.5 (2020-May-31.0) TDB
Reference: JPL 20 (heliocentric ecliptic J2000)
Element | Value | Uncertainty (1-sigma) | Units |
e | .163876131794573 | 4.77e-08 | |
a | 2.317319833762992 | 7.1582e-09 | au |
q | 1.93756642327507 | 1.1238e-07 | au |
i | 4.702607049858449 | 3.1095e-06 | deg |
node | 88.54624877820889 | 5.9279e-05 | deg |
peri | 254.7945102926942 | 6.0746e-05 | deg |
M | 77.43313553811012 | 1.1587e-05 | deg |
tp | 2458723.358387225151 (2019-Aug-27.85838723) | 4.1608e-05 | TDB |
period | 1288.479149211793 3.53 | 5.9702e-06 1.635e-08 | d yr |
n | .2793991662342571 | 1.2946e-09 | deg/d |
Q | 2.697073244250914 | 8.3313e-09 | au |
|
| | Orbit Determination Parameters
Additional Information
|